CDT,Max TemperatureF,Mean TemperatureF,Min TemperatureF,Max Dew PointF,MeanDew PointF,Min DewpointF,Max Humidity, Mean Humidity, Min Humidity, Max Sea Level PressureIn, Mean Sea Level PressureIn, Min Sea Level PressureIn, Max VisibilityMiles, Mean VisibilityMiles, Min VisibilityMiles, Max Wind SpeedMPH, Mean Wind SpeedMPH, Max Gust SpeedMPH,PrecipitationIn, CloudCover, Events, WindDirDegrees
2013-3-1,38,35,32,36,33,30,100,95,81,30.13,30.08,30.05,10,6,1,14,6,,0.00,8,Rain-Snow,308
2013-3-2,33,32,30,31,25,15,97,77,51,30.21,30.17,30.10,10,9,4,14,9,20,0.00,8,Snow,323
2013-3-3,40,32,23,29,20,16,81,60,39,30.21,30.15,30.08,10,10,10,8,4,,0.00,3,,297
2013-3-4,57,47,37,40,28,22,74,51,34,30.10,29.92,29.78,10,10,7,13,5,23,0.02,5,Rain,112
2013-3-5,47,40,33,45,33,21,100,80,55,30.06,29.90,29.75,10,9,2,24,8,32,0.06,7,Rain-Snow,294
2013-3-6,42,36,29,27,25,23,86,65,52,30.33,30.26,30.06,10,10,7,20,12,32,0.00,6,Snow,325
2013-3-7,46,36,25,29,27,23,96,73,47,30.41,30.36,30.32,10,10,10,7,1,,0.00,1,,89
2013-3-8,55,40,25,31,28,24,99,64,32,30.44,30.35,30.24,10,10,5,10,3,,0.00,0,,90
2013-3-9,68,55,42,34,31,28,65,45,26,30.24,30.08,29.94,10,10,10,12,6,20,0.00,2,,127
2013-3-10,66,58,50,55,45,34,100,68,43,29.94,29.82,29.71,10,9,4,22,9,31,0.30,4,Rain,161
2013-3-11,52,44,37,51,37,29,100,82,69,30.01,29.85,29.73,10,10,2,16,8,24,0.03,8,Rain,245
2013-3-12,51,41,31,28,26,19,80,57,33,30.19,30.09,30.01,10,10,10,15,5,21,0.00,2,,277
2013-3-13,44,36,28,27,20,17,78,53,35,30.42,30.33,30.20,10,10,10,17,9,25,0.00,2,,317
2013-3-14,45,33,21,35,27,21,99,77,39,30.42,30.31,30.13,10,10,10,8,2,,0.02,3,Rain,139
2013-3-15,73,52,30,50,41,30,100,65,37,30.13,29.93,29.77,10,10,10,16,4,25,0.00,0,,209
2013-3-16,68,56,44,50,44,37,78,60,48,29.99,29.85,29.74,10,9,5,18,13,28,0.00,1,,294
2013-3-17,43,40,37,43,39,36,100,95,77,30.05,29.92,29.74,10,8,3,13,8,20,0.86,8,Rain-Thunderstorm,45
2013-3-18,50,43,36,46,42,36,100,91,67,29.99,29.79,29.65,10,9,2,15,7,23,1.08,6,Rain-Thunderstorm,284
2013-3-19,51,40,30,38,23,12,100,54,22,30.20,30.15,30.00,10,10,10,13,4,18,0.00,1,,325
2013-3-20,44,36,28,32,23,15,83,61,40,30.22,30.16,30.10,10,10,10,18,6,26,0.00,2,,317
2013-3-21,40,30,21,21,16,10,86,53,31,30.12,30.06,29.98,10,10,10,9,3,,0.00,1,,356
2013-3-22,42,38,33,26,22,20,61,54,46,30.04,30.01,29.96,10,10,10,7,5,,0.00,8,,81
2013-3-23,55,47,39,45,31,25,97,56,41,29.99,29.90,29.76,10,10,7,12,5,21,0.06,7,Rain,53
2013-3-24,45,39,33,44,38,31,100,94,80,29.76,29.61,29.45,10,8,2,21,9,31,0.09,8,Rain-Snow-Thunderstorm,335
2013-3-25,37,34,32,33,29,26,99,82,70,30.17,29.97,29.77,10,9,1,20,14,31,0.00,8,Rain-Snow,283
2013-3-26,43,36,29,31,27,23,94,71,47,30.36,30.27,30.17,10,10,3,12,6,17,0.00,6,Snow,303
2013-3-27,50,36,23,34,27,23,100,67,39,30.41,30.35,30.31,10,10,7,9,1,,0.00,1,,244
2013-3-28,59,49,39,38,32,29,77,54,35,30.38,30.31,30.25,10,10,10,8,2,,0.00,7,,91
2013-3-29,56,49,42,48,44,34,100,83,52,30.27,30.23,30.19,10,8,2,7,4,,0.26,7,Rain,81
2013-3-30,56,46,37,50,45,37,100,93,67,30.21,30.09,29.91,10,4,0,7,2,,0.35,8,Fog-Rain,102
2013-3-31,63,56,49,53,49,45,100,86,58,29.96,29.90,29.86,10,6,0,8,2,,0.20,5,Fog,240